Regional Weather Roundup
Issued by NWS Sioux Falls, SD

Home | Current Version | Previous Version | Text Only | Print | Product List | Glossary Off
Versions: 1 2 3 4 5 6 7 8 9 10 11 12 13 14 15 16 17 18 19 20 21 22 23 24 25 26 27 28 29 30 31 32 33 34 35 36 37 38 39 40 41 42 43 44 45 46 47 48 49 50

000
ASUS43 KFSD 300602
RWRFSD

WEATHER ROUNDUP FOR SE SOUTH DAKOTA/SW MINNESOTA/NW IOWA
NATIONAL WEATHER SERVICE SIOUX FALLS SD
100 AM CDT MON MAR 30 2015

NOTE: "FAIR" INDICATES FEW OR NO CLOUDS BELOW 12,000 FEET WITH NO
SIGNIFICANT WEATHER AND OR OBSTRUCTIONS TO VISIBILITY.


SDZ038>040-050-052>070-300700-
SOUTHEAST SOUTH DAKOTA

CITY           SKY/WX    TMP DP  RH WIND       PRES   REMARKS
CHAMBERLAIN    NOT AVBL
HURON          CLOUDY    40  24  53 SW7       30.02R
6HR MIN TEMP:  38; 6HR MAX TEMP:  58;

MADISON        FAIR      39  18  41 SW7       30.03R
MITCHELL       MOCLDY    44  24  45 SW7       30.04S
6HR MIN TEMP:  43; 6HR MAX TEMP:  59;

SIOUX FALLS    PTCLDY    37  21  52 SW5       30.04S
6HR MIN TEMP:  34; 6HR MAX TEMP:  56;

WINNER         FAIR      49  21  33 SW12      30.04S
YANKTON        CLEAR     43  21  42 SW7       30.07S
$$

MNZ071-072-080-081-089-090-097-098-300700-
SOUTHWEST MINNESOTA

CITY           SKY/WX    TMP DP  RH WIND       PRES   REMARKS
FAIRMONT       CLEAR     37  21  52 W8        30.02S
JACKSON        PTCLDY    37  23  56 SW3       30.03S
LUVERNE        CLEAR     32  23  69 CALM      30.05R
MARSHALL       CLEAR     39  23  52 SW14      30.00S
6HR MIN TEMP:  39; 6HR MAX TEMP:  54;

MONTEVIDEO     CLEAR     37  27  65 W8        29.98S
PIPESTONE      CLEAR     36  21  55 SW5       30.02S
REDWOOD FALLS  PTCLDY    40  25  55 SW12      29.98S
TRACY          CLEAR     40  26  58 SW10      30.01S
WINDOM         CLEAR     36  25  64 CALM      30.02S
WORTHINGTON    CLEAR     36  21  55 SW9       30.04F
$$

IAZ001>003-012>014-020>022-031-032-NEZ013-014-SDZ071-300700-
NORTHWEST IOWA

CITY           SKY/WX    TMP DP  RH WIND       PRES   REMARKS
DENISON        CLEAR     32  23  69 CALM      30.08F
ESTHERVILLE    CLEAR     31  23  72 W8        30.03S WCI  23
SIOUX CITY     CLEAR     34  21  59 CALM      30.08F
6HR MIN TEMP:  33; 6HR MAX TEMP:  60;

SPENCER        FAIR      28  22  78 SW7       30.05S WCI  21
6HR MIN TEMP:  28; 6HR MAX TEMP:  56;

$$

ABBREVIATIONS USED IN REMARKS
   TC - TEMPERATURE IN CELSIUS
  WCI - WIND CHILL INDEX
   HX - HEAT INDEX
  VSB - VISIBILITY




USA.gov is the U.S. government's official web portal to all federal, state and local government web resources and services.